FENGYUN 1C DEB, 30694

Orbit data source: Space-Track

FENGYUN 1C DEB, 30694 is space debris in SSO originally from a launch on Mon, 10 May 1999 UTC launched from the Taiyaun Space Center, China (TSC). Fengyun 1C debris stems from the Chinese weather satellite Fengyun-1C, which was intentionally destroyed by a Chinese anti-satellite missile in 2007. This event dramatically increased the amount of space debris, with thousands of trackable fragments posing hazards to satellites and human spaceflight. The Fengyun 1C debris cloud has become a focal point in discussions about space sustainability and the need for international regulations to prevent the creation of new debris.

Loading next visibility...
Identifier
30694, 1999-025ARC
Orbit
SSO
Country
Flag of CNCN / PRC
Related business
Manufacturer
Unknown
Mission
Spacecraft
Bus & Motor
Unknown
Mass
Unknown
Launch date (UTC)
1999-05-10 (27 years ago)
Launch vehicle
Unknown
Launch site
Taiyaun Space Center, China (TSC)
Object type
Payload
Rocket body
Debris
Shape & HBR
Unknown shape, 0.1 m
Radar Cross Section
Small (<0.1 m²)

Expand to show TLE details & history
Last TLE update: 17 hours ago

TLE from 17 hours ago
0 FENGYUN 1C DEB
1 30694U 99025ARC 26255.45646927  .00003479  00000-0  30895-3 0  9991
2 30694  99.0640 266.1315 0121424 141.1393 219.8630 14.91468379 41705
Epoch: 2026-09-12T10:57Z
TLE epoch observation values (Epoch: 2026-09-12T10:57:18.944Z)
Latitude
-0.00007°
Longitude
110.33737°
Altitude
661.763 km
Speed
7.491 km/s
True Right ascension
17h 44m 31s
True Declination
0° 00' 00"
Sunlit
Object was in daylight at epoch
Visualization orbit readout
Latitude
Unknown
Longitude
Unknown
Altitude
Unknown
Speed
Unknown
Apparent Right ascension
Unknown
Apparent Declination
Unknown
Sunlit
N/A
Visualization observer readout
Local Sidereal Time
20:48:58
Azimuth
Unknown
Elevation
Unknown
Doppler factor
Unknown
Orbital elements
Apogee altitude
675.052 km
Perigee altitude
505.822 km
Semi-major axis
6,968.574 km
Eccentricity
0.01214
Inclination
99.064°
RAAN
266.1315°
Arg. of periapsis
141.1393°
True anomaly
218.98148°
Mean anomaly
219.863°
Eccentric anomaly
219.42121°
Mean motion
3.73102 °/min
Orbital period
96.49 mins
BSTAR
0.00030895
Loading maneuver chart data...
Computing Atmospheric mass density...

Documentation

Showing up to 5 results
|